STARLINK-35315

Last updated on Fri Dec 19 2025 00:02:05 GMT+0000 (Coordinated Universal Time)

1 66543U 25265AD 25352.66667824 .00025961 00000+0 62661-3 0 9992 2 66543 43.0002 19.3916 0001771 287.0166 200.0430 15.40700740 5833
UTC large
Height (km)
Speed (km/s)
/
Latitude / Longitude
Inclination (degrees)
Orbital Period (minutes)
Azimuth
Elevation
Range (km)
Doppler Factor

Next 0 passes for location: London (51.5072 / 0.1276)

Sorry there are no passes over London.